• In India
  • List of Countries
  • For 7 days
  • Water Temperature
  • Satellite Maps
  • Weather Map
  • Weather Widgets
  • user-avatar
    Login

    Hourly Weather Shkoder

    Today, 21 September, Friday

    Time Temperature Precipitation Wind Pressure Humidity
    00:00 +20°C° 0 mm 2 mps 741 mmHg 58%
    01:00 +20°C° 0 mm 2 mps 741 mmHg 59%
    02:00 +20°C° 0 mm 2 mps 741 mmHg 59%
    03:00 +20°C° 0 mm 2 mps 741 mmHg 60%
    04:00 +19°C° 0 mm 2 mps 741 mmHg 61%
    05:00 +20°C° 0 mm 2 mps 741 mmHg 59%
    06:00 +21°C° 0 mm 2 mps 741 mmHg 57%
    07:00 +24°C° 0 mm 2 mps 741 mmHg 57%
    08:00 +26°C° 0 mm 2 mps 741 mmHg 51%
    09:00 +28°C° 0 mm 2 mps 741 mmHg 44%
    10:00 +30°C° 0 mm 1 mps 741 mmHg 38%
    11:00 +30°C° 0 mm 2 mps 741 mmHg 37%
    12:00 +31°C° 0 mm 2 mps 740 mmHg 35%
    13:00 +31°C° 0 mm 2 mps 740 mmHg 34%
    14:00 +31°C° 0 mm 2 mps 740 mmHg 37%
    15:00 +30°C° 0 mm 2 mps 740 mmHg 40%
    16:00 +29°C° 0 mm 2 mps 740 mmHg 43%
    17:00 +27°C° 0 mm 1 mps 740 mmHg 51%
    18:00 +25°C° 0 mm 1 mps 740 mmHg 58%
    19:00 +20°C° 0 mm 0 mps 740 mmHg 65%
    20:00 +22°C° 0 mm 1 mps 740 mmHg 67%
    21:00 +22°C° 0 mm 1 mps 741 mmHg 69%
    22:00 +21°C° 0 mm 1 mps 741 mmHg 71%
    23:00 +21°C° 0 mm 1 mps 741 mmHg 71%

    Tomorrow, 22 September, Saturday

    Time Temperature Precipitation Wind Pressure Humidity
    00:00 +21°C° 0 mm 1 mps 741 mmHg 71%
    01:00 +20°C° 0 mm 1 mps 741 mmHg 71%
    02:00 +20°C° 0 mm 1 mps 741 mmHg 70%
    03:00 +20°C° 0 mm 1 mps 741 mmHg 70%
    04:00 +20°C° 0 mm 1 mps 741 mmHg 69%
    05:00 +21°C° 0 mm 1 mps 741 mmHg 65%
    06:00 +22°C° 0 mm 1 mps 741 mmHg 61%
    07:00 +23°C° 0 mm 1 mps 742 mmHg 57%
    08:00 +25°C° 0 mm 1 mps 742 mmHg 52%
    09:00 +27°C° 0 mm 1 mps 742 mmHg 46%
    10:00 +29°C° 0 mm 1 mps 742 mmHg 40%
    11:00 +29°C° 0 mm 2 mps 741 mmHg 39%
    12:00 +30°C° 0 mm 2 mps 741 mmHg 39%
    13:00 +31°C° 0 mm 3 mps 741 mmHg 38%
    14:00 +30°C° 0 mm 2 mps 741 mmHg 42%
    15:00 +29°C° 0 mm 2 mps 741 mmHg 45%
    16:00 +29°C° 0 mm 2 mps 741 mmHg 49%
    17:00 +26°C° 0 mm 2 mps 741 mmHg 60%
    18:00 +24°C° 0 mm 1 mps 742 mmHg 70%
    19:00 +22°C° 0 mm 1 mps 742 mmHg 81%
    20:00 +22°C° 0 mm 1 mps 742 mmHg 81%
    21:00 +21°C° 0 mm 1 mps 743 mmHg 81%
    22:00 +21°C° 0 mm 1 mps 743 mmHg 81%
    23:00 +21°C° 0 mm 1 mps 743 mmHg 80%

    Day after tomorrow, 23 September, Sunday

    Time Temperature Precipitation Wind Pressure Humidity
    00:00 +19°C° 0 mm 2 mps 743 mmHg 79%
    01:00 +19°C° 0 mm 2 mps 743 mmHg 79%
    02:00 +19°C° 0 mm 2 mps 743 mmHg 79%
    03:00 +19°C° 0 mm 2 mps 743 mmHg 80%
    04:00 +18°C° 0 mm 2 mps 743 mmHg 80%
    05:00 +19°C° 0 mm 2 mps 743 mmHg 76%
    06:00 +20°C° 0 mm 2 mps 744 mmHg 72%
    07:00 +21°C° 0 mm 2 mps 744 mmHg 68%
    08:00 +25°C° 0 mm 1 mps 744 mmHg 60%
    09:00 +27°C° 0 mm 1 mps 744 mmHg 51%
    10:00 +29°C° 0 mm 1 mps 744 mmHg 42%
    11:00 +30°C° 0 mm 2 mps 744 mmHg 40%
    12:00 +31°C° 0 mm 2 mps 744 mmHg 38%
    13:00 +32°C° 0 mm 2 mps 743 mmHg 36%
    14:00 +31°C° 0 mm 2 mps 743 mmHg 39%
    15:00 +31°C° 0 mm 2 mps 743 mmHg 41%
    16:00 +30°C° 0 mm 3 mps 743 mmHg 44%
    17:00 +27°C° 0 mm 2 mps 743 mmHg 54%
    18:00 +25°C° 0 mm 1 mps 743 mmHg 63%
    19:00 +23°C° 0 mm 1 mps 743 mmHg 72%
    20:00 +22°C° 0 mm 1 mps 743 mmHg 72%
    21:00 +22°C° 0 mm 1 mps 743 mmHg 71%
    22:00 +22°C° 0 mm 1 mps 743 mmHg 70%
    23:00 +22°C° 0 mm 1 mps 743 mmHg 70%

    24 September, Monday

    Time Temperature Precipitation Wind Pressure Humidity
    00:00 +21°C° 0 mm 1 mps 742 mmHg 70%
    01:00 +21°C° 0 mm 1 mps 742 mmHg 70%
    02:00 +21°C° 0 mm 1 mps 742 mmHg 69%
    03:00 +20°C° 0 mm 1 mps 741 mmHg 68%
    04:00 +20°C° 0 mm 1 mps 741 mmHg 67%
    05:00 +20°C° 0 mm 2 mps 741 mmHg 64%
    06:00 +21°C° 0 mm 2 mps 740 mmHg 60%
    07:00 +23°C° 0 mm 2 mps 740 mmHg 57%
    08:00 +25°C° 0 mm 2 mps 740 mmHg 52%
    09:00 +27°C° 0 mm 2 mps 740 mmHg 47%
    10:00 +29°C° 0 mm 2 mps 740 mmHg 42%
    11:00 +30°C° 0 mm 3 mps 740 mmHg 41%
    12:00 +30°C° 0 mm 3 mps 740 mmHg 40%
    13:00 +31°C° 0 mm 3 mps 739 mmHg 39%
    14:00 +30°C° 0 mm 3 mps 739 mmHg 42%
    15:00 +29°C° 0 mm 2 mps 740 mmHg 45%
    16:00 +28°C° 0 mm 2 mps 740 mmHg 49%
    17:00 +26°C° 0 mm 2 mps 740 mmHg 55%
    18:00 +22°C° 0 mm 3 mps 741 mmHg 61%
    19:00 +20°C° 0 mm 3 mps 742 mmHg 68%
    20:00 +19°C° 0 mm 4 mps 742 mmHg 66%
    21:00 +16°C° 0 mm 5 mps 742 mmHg 65%
    22:00 +15°C° 0 mm 6 mps 743 mmHg 64%
    23:00 +15°C° 0 mm 6 mps 743 mmHg 64%

    25 September, Tuesday

    Time Temperature Precipitation Wind Pressure Humidity
    00:00 +14°C° 0 mm 6 mps 743 mmHg 65%
    01:00 +14°C° 0 mm 6 mps 743 mmHg 65%
    02:00 +13°C° 0 mm 6 mps 743 mmHg 66%
    03:00 +13°C° 0 mm 6 mps 744 mmHg 67%
    04:00 +13°C° 0 mm 6 mps 744 mmHg 68%
    05:00 +11°C° 0.8 mm 7 mps 744 mmHg 70%
    06:00 +11°C° 0.8 mm 7 mps 745 mmHg 73%
    07:00 +10°C° 0.8 mm 7 mps 745 mmHg 76%
    08:00 +12°C° 0.1 mm 7 mps 745 mmHg 68%
    09:00 +14°C° 0.1 mm 7 mps 745 mmHg 60%
    10:00 +16°C° 0.1 mm 6 mps 746 mmHg 52%
    11:00 +17°C° 0 mm 6 mps 745 mmHg 47%
    12:00 +19°C° 0 mm 6 mps 745 mmHg 42%
    13:00 +20°C° 0 mm 6 mps 745 mmHg 36%
    14:00 +19°C° 0 mm 6 mps 745 mmHg 37%
    15:00 +19°C° 0 mm 6 mps 745 mmHg 37%
    16:00 +17°C° 0 mm 6 mps 745 mmHg 38%
    17:00 +15°C° 0 mm 6 mps 746 mmHg 40%
    18:00 +14°C° 0 mm 6 mps 746 mmHg 43%
    19:00 +11°C° 0 mm 6 mps 747 mmHg 45%
    20:00 +10°C° 0 mm 6 mps 747 mmHg 47%
    21:00 +9°C° 0 mm 7 mps 748 mmHg 48%
    22:00 +9°C° 0 mm 7 mps 748 mmHg 50%
    23:00 +8°C° 0 mm 7 mps 748 mmHg 50%

    26 September, Wednesday

    Time Temperature Precipitation Wind Pressure Humidity
    00:00 +8°C° 0 mm 6 mps 749 mmHg 50%
    01:00 +8°C° 0 mm 6 mps 749 mmHg 50%
    02:00 +7°C° 0 mm 6 mps 749 mmHg 50%
    03:00 +7°C° 0 mm 6 mps 749 mmHg 50%
    04:00 +7°C° 0 mm 6 mps 749 mmHg 50%
    05:00 +8°C° 0 mm 6 mps 749 mmHg 48%
    06:00 +8°C° 0 mm 6 mps 749 mmHg 45%
    07:00 +9°C° 0 mm 6 mps 750 mmHg 42%
    08:00 +11°C° 0 mm 6 mps 750 mmHg 37%
    09:00 +14°C° 0 mm 6 mps 749 mmHg 32%
    10:00 +16°C° 0 mm 5 mps 749 mmHg 26%
    11:00 +17°C° 0 mm 5 mps 749 mmHg 24%
    12:00 +19°C° 0 mm 5 mps 749 mmHg 22%
    13:00 +20°C° 0 mm 5 mps 748 mmHg 20%
    14:00 +20°C° 0 mm 4 mps 748 mmHg 21%
    15:00 +20°C° 0 mm 4 mps 748 mmHg 21%
    16:00 +19°C° 0 mm 4 mps 748 mmHg 22%
    17:00 +17°C° 0 mm 4 mps 748 mmHg 27%
    18:00 +14°C° 0 mm 3 mps 749 mmHg 31%
    19:00 +12°C° 0 mm 3 mps 749 mmHg 35%
    20:00 +11°C° 0 mm 3 mps 749 mmHg 37%
    21:00 +11°C° 0 mm 3 mps 749 mmHg 39%
    22:00 +10°C° 0 mm 4 mps 749 mmHg 40%
    23:00 +10°C° 0 mm 4 mps 749 mmHg 41%
    Show more